| time (UTC) | temp C | wind direction | speed KPH | gust KPH | rain 1hr cm | rain 24hr cm | rain mn cm | humidity % | barometer mb |
| 20260831095312 | 16 | 246 | 0.0 | 0.0 | 0.00 | 0.03 | 0.00 | 97 | 1019.8 |
| 20260831094330 | 16 | 247 | 0.0 | 0.0 | 0.00 | 0.03 | 0.00 | 97 | 1019.9 |
| 20260831093350 | 16 | 248 | 0.0 | 0.0 | 0.00 | 0.03 | 0.00 | 97 | 1019.8 |
| 20260831092320 | 16 | 248 | 0.0 | 0.0 | 0.00 | 0.03 | 0.00 | 97 | 1019.8 |
| 20260831091335 | 16 | 248 | 0.0 | 0.0 | 0.00 | 0.03 | 0.00 | 97 | 1019.8 |
| 20260831090324 | 16 | 248 | 0.0 | 0.0 | 0.00 | 0.03 | 0.00 | 96 | 1019.8 |
| 20260831085345 | 16 | 248 | 0.0 | 0.0 | 0.00 | 0.03 | 0.00 | 96 | 1019.6 |
| 20260831084318 | 16 | 248 | 0.0 | 0.0 | 0.00 | 0.03 | 0.00 | 96 | 1019.6 |
| 20260831083335 | 16 | 248 | 0.0 | 0.0 | 0.00 | 0.03 | 0.00 | 96 | 1019.7 |
| 20260831082354 | 16 | 248 | 0.0 | 0.0 | 0.00 | 0.03 | 0.00 | 96 | 1019.7 |
| 20260831081328 | 16 | 248 | 0.0 | 0.0 | 0.00 | 0.03 | 0.00 | 96 | 1019.5 |
| 20260831080349 | 16 | 248 | 0.0 | 0.0 | 0.00 | 0.03 | 0.00 | 96 | 1019.6 |
| 20260831074329 | 17 | 248 | 0.0 | 0.0 | 0.00 | 0.03 | 0.00 | 96 | 1019.5 |
| 20260831073320 | 17 | 248 | 0.0 | 0.0 | 0.00 | 0.03 | 0.00 | 96 | 1019.6 |
| 20260831072313 | 17 | 248 | 0.0 | 0.0 | 0.00 | 0.03 | 0.00 | 96 | 1019.6 |
| 20260831071334 | 17 | 248 | 0.0 | 0.0 | 0.00 | 0.03 | 0.00 | 96 | 1019.5 |
| 20260831070329 | 17 | 248 | 0.0 | 0.0 | 0.00 | 0.03 | 0.00 | 96 | 1019.5 |
| 20260831065325 | 17 | 248 | 0.0 | 0.0 | 0.00 | 0.03 | 0.00 | 96 | 1019.5 |
| 20260831064316 | 17 | 248 | 0.0 | 0.0 | 0.00 | 0.03 | 0.00 | 96 | 1019.5 |
| 20260831063336 | 17 | 248 | 0.0 | 0.0 | 0.00 | 0.03 | 0.00 | 96 | 1019.5 |
| 20260831062315 | 17 | 248 | 0.0 | 0.0 | 0.00 | 0.03 | 0.00 | 96 | 1019.3 |
| 20260831061331 | 18 | 248 | 0.0 | 0.0 | 0.00 | 0.03 | 0.00 | 95 | 1019.4 |
| 20260831060326 | 18 | 248 | 0.0 | 0.0 | 0.00 | 0.03 | 0.00 | 95 | 1019.4 |
| 20260831055344 | 18 | 248 | 0.0 | 0.0 | 0.00 | 0.03 | 0.00 | 95 | 1019.3 |
| 20260831054316 | 18 | 248 | 0.0 | 0.0 | 0.00 | 0.03 | 0.00 | 95 | 1019.3 |
| 20260831053315 | 18 | 248 | 0.0 | 0.0 | 0.00 | 0.03 | 0.00 | 95 | 1019.3 |
| 20260831052334 | 18 | 248 | 0.0 | 0.0 | 0.00 | 0.03 | 0.00 | 95 | 1019.1 |
| 20260831051326 | 19 | 248 | 0.0 | 0.0 | 0.00 | 0.03 | 0.00 | 95 | 1019.1 |
| 20260831050323 | 19 | 248 | 0.0 | 0.0 | 0.00 | 0.03 | 0.00 | 95 | 1019.2 |
| 20260831045347 | 20 | 248 | 0.0 | 1.6 | 0.00 | 0.03 | 0.00 | 95 | 1019.1 |
| 20260831044344 | 20 | 248 | 0.0 | 0.0 | 0.00 | 0.03 | 0.00 | 94 | 1019.0 |
| 20260831043316 | 20 | 248 | 0.0 | 0.0 | 0.00 | 0.03 | 0.00 | 94 | 1019.1 |
| 20260831042337 | 20 | 248 | 0.0 | 0.0 | 0.00 | 0.03 | 0.00 | 94 | 1019.0 |
| 20260831041335 | 20 | 248 | 0.0 | 1.6 | 0.00 | 0.03 | 0.00 | 94 | 1019.1 |
| 20260831040333 | 20 | 214 | 0.0 | 0.0 | 0.00 | 0.03 | 0.00 | 93 | 1019.2 |
| 20260831035320 | 20 | 214 | 0.0 | 1.6 | 0.00 | 0.03 | 0.03 | 93 | 1019.1 |
| 20260831034330 | 20 | 214 | 0.0 | 1.6 | 0.00 | 0.03 | 0.03 | 93 | 1019.2 |
| 20260831033321 | 21 | 108 | 0.0 | 1.6 | 0.00 | 0.03 | 0.03 | 94 | 1019.1 |
| 20260831032316 | 21 | 53 | 0.0 | 1.6 | 0.03 | 0.03 | 0.03 | 94 | 1019.2 |
| 20260831031355 | 21 | 219 | 0.0 | 1.6 | 0.03 | 0.03 | 0.03 | 94 | 1019.4 |
| 20260831030328 | 21 | 219 | 0.0 | 1.6 | 0.03 | 0.03 | 0.03 | 94 | 1019.3 |
| 20260831025317 | 21 | 219 | 0.0 | 1.6 | 0.03 | 0.03 | 0.03 | 94 | 1019.3 |
| 20260831024336 | 21 | 73 | 0.0 | 3.2 | 0.03 | 0.03 | 0.03 | 95 | 1019.5 |
| 20260831023331 | 21 | 146 | 0.0 | 1.6 | 0.03 | 0.03 | 0.03 | 95 | 1019.6 |
| 20260831022323 | 21 | 185 | 0.0 | 0.0 | 0.00 | 0.00 | 0.00 | 95 | 1019.5 |
| 20260831021312 | 21 | 185 | 0.0 | 0.0 | 0.00 | 0.00 | 0.00 | 95 | 1019.5 |
| 20260831020334 | 21 | 185 | 0.0 | 0.0 | 0.00 | 0.00 | 0.00 | 95 | 1019.3 |
| 20260831015329 | 21 | 186 | 0.0 | 0.0 | 0.00 | 0.00 | 0.00 | 95 | 1019.3 |
| 20260831014322 | 21 | 186 | 0.0 | 1.6 | 0.00 | 0.00 | 0.00 | 95 | 1019.1 |
| 20260831013316 | 21 | 219 | 0.0 | 1.6 | 0.00 | 0.00 | 0.00 | 95 | 1019.0 |
| 20260831012317 | 21 | 223 | 0.0 | 0.0 | 0.00 | 0.00 | 0.00 | 94 | 1019.1 |
| 20260831011335 | 21 | 223 | 0.0 | 0.0 | 0.00 | 0.00 | 0.00 | 94 | 1019.0 |
| 20260831010329 | 21 | 223 | 0.0 | 0.0 | 0.00 | 0.00 | 0.00 | 94 | 1018.9 |
| 20260831005326 | 21 | 223 | 0.0 | 0.0 | 0.00 | 0.00 | 0.00 | 93 | 1019.0 |
| 20260831004345 | 21 | 223 | 0.0 | 0.0 | 0.00 | 0.00 | 0.00 | 93 | 1018.9 |
| 20260831003318 | 21 | 223 | 0.0 | 0.0 | 0.00 | 0.00 | 0.00 | 92 | 1018.8 |
| 20260831002314 | 21 | 223 | 0.0 | 0.0 | 0.00 | 0.00 | 0.00 | 92 | 1018.7 |
| 20260831001332 | 21 | 223 | 0.0 | 0.0 | 0.00 | 0.00 | 0.00 | 92 | 1018.7 |
| 20260831000327 | 21 | 223 | 0.0 | 0.0 | 0.00 | 0.00 | 0.00 | 91 | 1018.7 |
| 20260830235316 | 21 | 223 | 0.0 | 0.0 | 0.00 | 0.00 | 0.00 | 90 | 1018.5 |
| 20260830234358 | 21 | 223 | 0.0 | 0.0 | 0.00 | 0.00 | 0.00 | 89 | 1018.5 |
| 20260830233329 | 21 | 223 | 0.0 | 0.0 | 0.00 | 0.00 | 0.00 | 89 | 1018.5 |
| 20260830232321 | 21 | 223 | 0.0 | 0.0 | 0.00 | 0.00 | 0.00 | 88 | 1018.5 |
| 20260830231317 | 22 | 223 | 0.0 | 0.0 | 0.00 | 0.00 | 0.00 | 88 | 1018.4 |
| 20260830230337 | 22 | 223 | 0.0 | 0.0 | 0.00 | 0.00 | 0.00 | 88 | 1018.4 |
| 20260830225328 | 22 | 223 | 0.0 | 1.6 | 0.00 | 0.00 | 0.00 | 88 | 1018.6 |
| 20260830224324 | 22 | 223 | 0.0 | 0.0 | 0.00 | 0.00 | 0.00 | 87 | 1018.7 |
| 20260830223317 | 22 | 223 | 0.0 | 0.0 | 0.00 | 0.00 | 0.00 | 86 | 1018.4 |
| 20260830222337 | 22 | 223 | 0.0 | 0.0 | 0.00 | 0.00 | 0.00 | 85 | 1018.6 |
| 20260830221329 | 22 | 223 | 0.0 | 0.0 | 0.00 | 0.00 | 0.00 | 84 | 1018.6 |
| 20260830220325 | 23 | 223 | 0.0 | 0.0 | 0.00 | 0.00 | 0.00 | 83 | 1018.6 |
| 20260830215320 | 23 | 223 | 0.0 | 0.0 | 0.00 | 0.00 | 0.00 | 82 | 1018.5 |
| 20260830214346 | 23 | 223 | 0.0 | 1.6 | 0.00 | 0.00 | 0.00 | 81 | 1018.5 |
| 20260830213316 | 23 | 223 | 0.0 | 1.6 | 0.00 | 0.00 | 0.00 | 82 | 1018.5 |
| 20260830212337 | 23 | 223 | 0.0 | 1.6 | 0.00 | 0.00 | 0.00 | 80 | 1018.5 |
| 20260830211330 | 23 | 223 | 0.0 | 1.6 | 0.00 | 0.00 | 0.00 | 80 | 1018.6 |
| 20260830210350 | 23 | 224 | 0.0 | 1.6 | 0.00 | 0.00 | 0.00 | 79 | 1018.7 |
| 20260830205324 | 23 | 221 | 0.0 | 1.6 | 0.00 | 0.00 | 0.00 | 79 | 1018.7 |
| 20260830204315 | 23 | 300 | 0.0 | 1.6 | 0.00 | 0.00 | 0.00 | 79 | 1018.9 |
| 20260830203333 | 23 | 300 | 0.0 | 1.6 | 0.00 | 0.00 | 0.00 | 78 | 1018.9 |
| 20260830202328 | 23 | 20 | 0.0 | 1.6 | 0.00 | 0.00 | 0.00 | 77 | 1018.9 |
| 20260830201322 | 23 | 319 | 0.0 | 1.6 | 0.00 | 0.00 | 0.00 | 77 | 1019.0 |
| 20260830200318 | 23 | 333 | 0.0 | 1.6 | 0.00 | 0.00 | 0.00 | 77 | 1018.9 |
| 20260830195312 | 23 | 333 | 0.0 | 0.0 | 0.00 | 0.00 | 0.00 | 76 | 1019.0 |
| 20260830194323 | 23 | 333 | 0.0 | 0.0 | 0.00 | 0.00 | 0.00 | 76 | 1019.1 |
| 20260830193318 | 23 | 331 | 0.0 | 1.6 | 0.00 | 0.00 | 0.00 | 74 | 1019.3 |
| 20260830192336 | 23 | 336 | 0.0 | 0.0 | 0.00 | 0.00 | 0.00 | 73 | 1019.3 |
| 20260830191330 | 24 | 328 | 0.0 | 1.6 | 0.00 | 0.00 | 0.00 | 71 | 1019.5 |
| 20260830190325 | 24 | 290 | 0.0 | 1.6 | 0.00 | 0.00 | 0.00 | 69 | 1019.7 |
| 20260830185320 | 25 | 224 | 0.0 | 1.6 | 0.00 | 0.00 | 0.00 | 66 | 1019.9 |
| 20260830184342 | 26 | 293 | 0.0 | 1.6 | 0.00 | 0.00 | 0.00 | 65 | 1020.0 |
| 20260830183318 | 26 | 140 | 0.0 | 4.8 | 0.00 | 0.00 | 0.00 | 63 | 1020.2 |
| 20260830182327 | 26 | 313 | 1.6 | 4.8 | 0.00 | 0.00 | 0.00 | 62 | 1020.1 |
| 20260830181321 | 25 | 147 | 0.0 | 3.2 | 0.00 | 0.00 | 0.00 | 65 | 1020.2 |
| 20260830180315 | 26 | 332 | 0.0 | 3.2 | 0.00 | 0.00 | 0.00 | 65 | 1020.3 |
| 20260830175333 | 25 | 139 | 0.0 | 3.2 | 0.00 | 0.00 | 0.00 | 66 | 1020.2 |
| 20260830174332 | 26 | 31 | 0.0 | 3.2 | 0.00 | 0.00 | 0.00 | 67 | 1020.1 |
| 20260830173324 | 26 | 144 | 0.0 | 3.2 | 0.00 | 0.00 | 0.00 | 66 | 1020.4 |
| 20260830172319 | 25 | 147 | 0.0 | 4.8 | 0.00 | 0.00 | 0.00 | 67 | 1020.5 |
| 20260830170321 | 25 | 131 | 1.6 | 3.2 | 0.00 | 0.00 | 0.00 | 63 | 1020.6 |
| 20260830165315 | 25 | 125 | 0.0 | 1.6 | 0.00 | 0.00 | 0.00 | 64 | 1020.7 |
| 20260830164336 | 25 | 20 | 0.0 | 3.2 | 0.00 | 0.00 | 0.00 | 66 | 1020.7 |
| 20260830163329 | 25 | 359 | 0.0 | 3.2 | 0.00 | 0.00 | 0.00 | 65 | 1020.8 |
| 20260830162322 | 25 | 329 | 0.0 | 3.2 | 0.00 | 0.00 | 0.00 | 64 | 1021.0 |
| 20260830161329 | 24 | 137 | 0.0 | 3.2 | 0.00 | 0.00 | 0.00 | 66 | 1021.1 |
| 20260830160322 | 24 | 158 | 0.0 | 1.6 | 0.00 | 0.00 | 0.00 | 66 | 1021.2 |
| 20260830155318 | 24 | 61 | 0.0 | 1.6 | 0.00 | 0.00 | 0.00 | 68 | 1021.3 |
| 20260830154335 | 23 | 343 | 0.0 | 1.6 | 0.00 | 0.00 | 0.00 | 66 | 1021.3 |
| 20260830153353 | 23 | 272 | 0.0 | 3.2 | 0.00 | 0.00 | 0.00 | 66 | 1021.4 |
| 20260830152326 | 23 | 15 | 0.0 | 8.0 | 0.00 | 0.00 | 0.00 | 65 | 1021.4 |
| 20260830151318 | 23 | 131 | 0.0 | 1.6 | 0.00 | 0.00 | 0.00 | 67 | 1021.8 |
| 20260830150337 | 23 | 30 | 0.0 | 1.6 | 0.00 | 0.00 | 0.00 | 68 | 1021.8 |
| 20260830145331 | 22 | 332 | 0.0 | 3.2 | 0.00 | 0.00 | 0.00 | 71 | 1021.9 |
| 20260830144331 | 21 | 115 | 0.0 | 1.6 | 0.00 | 0.00 | 0.00 | 75 | 1021.9 |
| 20260830143323 | 21 | 71 | 0.0 | 0.0 | 0.00 | 0.00 | 0.00 | 81 | 1022.0 |
| 20260830142316 | 20 | 46 | 0.0 | 1.6 | 0.00 | 0.00 | 0.00 | 83 | 1022.0 |
| 20260830141337 | 20 | 344 | 0.0 | 1.6 | 0.00 | 0.00 | 0.00 | 82 | 1022.2 |
| 20260830140332 | 19 | 344 | 0.0 | 1.6 | 0.00 | 0.00 | 0.00 | 86 | 1022.2 |
| 20260830135322 | 18 | 344 | 0.0 | 1.6 | 0.00 | 0.00 | 0.00 | 87 | 1022.2 |
| 20260830134343 | 18 | 344 | 0.0 | 0.0 | 0.00 | 0.00 | 0.00 | 86 | 1022.2 |
| 20260830133312 | 17 | 344 | 0.0 | 0.0 | 0.00 | 0.00 | 0.00 | 88 | 1022.2 |
| 20260830132352 | 17 | 344 | 0.0 | 0.0 | 0.00 | 0.00 | 0.00 | 90 | 1022.3 |
| 20260830131323 | 17 | 344 | 0.0 | 0.0 | 0.00 | 0.00 | 0.00 | 90 | 1022.5 |
| 20260830130314 | 16 | 344 | 0.0 | 0.0 | 0.00 | 0.00 | 0.00 | 94 | 1022.6 |
| 20260830125324 | 16 | 344 | 0.0 | 0.0 | 0.00 | 0.00 | 0.00 | 96 | 1022.6 |
| 20260830124334 | 15 | 344 | 0.0 | 0.0 | 0.00 | 0.00 | 0.00 | 96 | 1022.6 |
| 20260830123330 | 15 | 344 | 0.0 | 0.0 | 0.00 | 0.00 | 0.00 | 97 | 1022.7 |
| 20260830122322 | 15 | 344 | 0.0 | 0.0 | 0.00 | 0.00 | 0.00 | 97 | 1022.9 |
| 20260830121317 | 15 | 344 | 0.0 | 0.0 | 0.00 | 0.00 | 0.00 | 97 | 1023.0 |
| 20260830120324 | 15 | 344 | 0.0 | 0.0 | 0.00 | 0.00 | 0.00 | 97 | 1023.0 |
| 20260830115319 | 14 | 344 | 0.0 | 0.0 | 0.00 | 0.00 | 0.00 | 97 | 1023.1 |
| 20260830114338 | 14 | 344 | 0.0 | 0.0 | 0.00 | 0.00 | 0.00 | 97 | 1022.9 |
| 20260830113347 | 14 | 344 | 0.0 | 0.0 | 0.00 | 0.00 | 0.00 | 97 | 1022.9 |
| 20260830112319 | 13 | 344 | 0.0 | 0.0 | 0.00 | 0.00 | 0.00 | 97 | 1022.9 |
| 20260830111312 | 13 | 344 | 0.0 | 0.0 | 0.00 | 0.00 | 0.00 | 97 | 1022.9 |
| 20260830110333 | 13 | 344 | 0.0 | 0.0 | 0.00 | 0.00 | 0.00 | 96 | 1022.9 |
| 20260830105330 | 13 | 344 | 0.0 | 0.0 | 0.00 | 0.00 | 0.00 | 96 | 1022.9 |
| 20260830104321 | 13 | 344 | 0.0 | 0.0 | 0.00 | 0.00 | 0.00 | 96 | 1022.7 |
| 20260830103313 | 13 | 344 | 0.0 | 0.0 | 0.00 | 0.00 | 0.00 | 96 | 1022.7 |
| 20260830102354 | 13 | 344 | 0.0 | 0.0 | 0.00 | 0.00 | 0.00 | 96 | 1022.7 |
| 20260830101328 | 13 | 344 | 0.0 | 0.0 | 0.00 | 0.00 | 0.00 | 96 | 1022.8 |
| 20260830100319 | 12 | 344 | 0.0 | 0.0 | 0.00 | 0.00 | 0.00 | 96 | 1022.7 |